{"data":{"norad_id":45160,"intl_designator":"2020-008AF","name":"ONEWEB-0057","alt_names":[],"object_type":"PAYLOAD","status":"ACTIVE","operator":null,"country":"UK","launch_date":"2020-02-06","launch_site_code":"TYMSC","launch_vehicle":null,"mission":null,"orbit_class":"UNKNOWN","rcs_meters":null,"size_class":null,"mass_kg":null,"dimensions":null,"purposes":["comms"],"wikipedia_slug":null,"has_3d_model":false,"image_url":null,"decayed_at":null,"tle_current":{"epoch":"2026-09-20T01:26:15.005760Z","epoch_age_seconds":52493,"freshness":"FRESH","line1":"1 45160U 20008AF  26263.05989590  .00000524  00000+0  14636-2 0  9992","line2":"2 45160  87.8908  17.3893 0002141 110.7008 249.4349 13.10374023320772","mean_motion":13.10374023,"eccentricity":0.0002141,"inclination_deg":87.8908,"raan_deg":17.3893,"arg_perigee_deg":110.7008,"mean_anomaly_deg":249.4349,"bstar":0.0014636,"rev_number":32077,"period_min":109.89228836384,"perigee_km":1220.0853599947,"apogee_km":1223.3396155454,"semimajor_km":7599.8494877701,"source":"CELESTRAK","updated_at":"2026-09-20T09:00:44.550705Z"}}}